Location: Unspecified
(58.9933°N, 5.6375°E)
Time: 16:23:42
(UTC+02:00)

Resurs 1-4 Rocket - Visible Passes

Search period start: 23 September 2014 00:00
Search period end: 03 October 2014 00:00
Orbit: 801 x 814 km, 98.3° (Epoch: 22 September)

Date Brightness Start Highest point End Pass type
(mag) Time Alt. Az. Time Alt. Az. Time Alt. Az.
23 Sep 4.8 04:11:53 10° NE 04:15:00 16° E 04:18:06 10° ESE visible
23 Sep 2.6 05:50:37 10° NNE 05:55:56 66° ESE 06:01:13 10° S visible
24 Sep 5.1 03:49:12 10° ENE 03:50:06 10° ENE 03:51:00 10° E visible
24 Sep 3.2 05:26:15 10° NNE 05:31:23 46° E 05:36:30 10° S visible
25 Sep 3.8 05:01:59 10° NNE 05:06:46 32° E 05:11:31 10° SSE visible
25 Sep 2.2 06:41:45 10° NNE 06:47:00 62° WNW 06:52:15 10° SW visible
26 Sep 4.3 04:37:52 10° NE 04:42:04 23° E 04:46:14 10° SE visible
26 Sep 2.1 06:17:16 10° NNE 06:22:37 86° WNW 06:27:58 10° SSW visible
27 Sep 4.8 04:14:00 10° NE 04:17:16 16° E 04:20:31 10° ESE visible
27 Sep 2.5 05:52:50 10° NNE 05:58:10 68° ESE 06:03:28 10° S visible
28 Sep 5.0 03:50:59 10° ENE 03:52:23 11° ENE 03:53:47 10° E visible
28 Sep 3.1 05:28:28 10° NNE 05:33:38 48° E 05:38:46 10° S visible
29 Sep 3.7 05:04:11 10° NNE 05:09:01 34° E 05:13:50 10° SSE visible
29 Sep 2.2 06:43:58 10° NNE 06:49:13 60° WNW 06:54:27 10° SW visible
30 Sep 4.3 04:40:02 10° NE 04:44:19 24° E 04:48:35 10° SE visible
30 Sep 2.1 06:19:29 10° NNE 06:24:51 83° WNW 06:30:11 10° SSW visible
01 Oct 4.7 04:16:08 10° NE 04:19:32 17° E 04:22:56 10° ESE visible
01 Oct 2.4 05:55:03 10° NNE 06:00:24 71° ESE 06:05:43 10° S visible
02 Oct 5.0 03:52:55 10° ENE 03:54:40 12° ENE 03:56:25 10° E visible
02 Oct 3.0 05:30:40 10° NNE 05:35:52 50° E 05:41:02 10° S visible
